sat.trackr.live / text

‹ back to catalog

CONNECTA IOT-1

NORAD 60472 · 2024-149E

PAYLOAD ACTIVE UNKNOWN

§ Identity

Operator
Country
TURK
Launch date
2024-08-16
Launch site
AFWTR
Launch vehicle
Mass (kg)
RCS (m²)

External: N2YO · Heavens-Above · Gunter

§ Orbital elements

Epoch: 2026-09-22T17:41:54.659616Z

Period
94.47 min
Inclination
97.3687°
Eccentricity
0.0000791
Mean motion
15.24334642 rev/d
Perigee alt
492.2 km
Apogee alt
493.3 km
Semi-major
6,870.9 km
B*
2.2832e-4
RAAN
340.3852°
Arg perigee
336.7516°
Mean anomaly
23.3686°
Rev number
11,665

§ Raw data

CONNECTA IOT-11 60472U 24149E   26265.73743819  .00005515  00000+0  22832-3 0  99972 60472  97.3687 340.3852 0000791 336.7516  23.3686 15.24334642116655

JSON: /api/v1/satellites/60472 · /tle

For live sub-satellite position, see the globe view (requires WebGL).

§ Visibility from observer

Set your observer location to see the next 7 days of passes ≥ 10°. The values pass through the URL so the page stays shareable.

No JS? Fill the form by hand. The geolocation button needs JavaScript.

§ Radio — SatNOGS DB

ModeDescriptionDownlinkUplink
GMSK Mode U - GMSK 4k8 AX.25 TLM 401.510 MHz
BPSK S-band telemetry 2.240 GHz
LoRa Mode U - LoRa (inactive) 869.525 MHz

3 transmitters · refreshed weekly from db.satnogs.org